SITRO-AIS 12 (SMIRENNIY)

Last updated on Sun Apr 12 2026 00:03:55 GMT+0000 (Coordinated Universal Time)

1 57204U 23091AQ 26101.47675348 .00016690 00000+0 47671-3 0 9996 2 57204 97.5137 170.7460 0005362 309.2608 50.8160 15.36073784154522
UTC large
Height (km)
Speed (km/s)
/
Latitude / Longitude
Inclination (degrees)
Orbital Period (minutes)
Azimuth
Elevation
Range (km)
Doppler Factor

Next 0 passes for location: London (51.5072 / 0.1276)

Sorry there are no passes over London.
SITRO-AIS 12 (SMIRENNIY)